DELTA 1 DEB, 8544

Orbit data source: Space-Track

DELTA 1 DEB, 8544 is space debris in SSO originally from a launch on Sun, 23 Jul 1972 UTC launched from the Air Force Western Test Range (AFWTR). Debris objects in space refer to the collection of defunct objects orbiting the Earth. Examples of debris include non-operational satellites, rocket bodies, and fragments generated from explosions, collisions, or faulty payload assembly.

Loading next visibility...
Identifier
8544, 1972-058GT
Orbit
SSO
Country
Flag of USUS
Related business
Manufacturer
Unknown
Mission
Spacecraft
Bus & Motor
Unknown
Mass
Unknown
Launch date (UTC)
1972-07-23 (53 years ago)
Launch vehicle
Unknown
Launch site
Air Force Western Test Range (AFWTR)
Object type
Payload
Rocket body
Debris
Shape & HBR
Unknown shape, 0.2 m
Radar Cross Section
Small (<0.1 m²)

Expand to show TLE details & history
Last TLE update: 1 day ago

TLE from 1 day ago
0 DELTA 1 DEB
1  8544U 72058GT  25299.24858216  .00000498  00000-0  57307-3 0  9992
2  8544  97.4515  54.3133 0840245 299.4023  52.5731 12.74075019488194
Epoch: 2025-10-26T05:57Z
TLE epoch observation values (Epoch: 2025-10-26T05:57:57.498Z)
Latitude
-0.00001°
Longitude
-70.04377°
Altitude
1,009.864 km
Speed
7.515 km/s
True Right ascension
03h 37m 15s
True Declination
0° 00' 00"
Sunlit
Object was in full shadow at epoch
Visualization orbit readout
Latitude
Unknown
Longitude
Unknown
Altitude
Unknown
Speed
Unknown
Apparent Right ascension
Unknown
Apparent Declination
Unknown
Sunlit
N/A
Visualization observer readout
Local Sidereal Time
11:14:46
Azimuth
Unknown
Elevation
Unknown
Doppler factor
Unknown
Orbital elements
Apogee altitude
2,013.077 km
Perigee altitude
712.244 km
Semi-major axis
7,740.798 km
Eccentricity
0.08402
Inclination
97.4515°
RAAN
54.3133°
Arg. of periapsis
299.4023°
True anomaly
60.71153°
Mean anomaly
52.5731°
Eccentric anomaly
56.59189°
Mean motion
3.18687 °/min
Orbital period
112.96 mins
BSTAR
0.00057307
Loading maneuver chart data...
Computing Atmospheric mass density...
Loading historical data...
Loading historical data...
Loading historical data...
Loading historical data...
Loading historical data...
Loading historical data...
Loading historical data...

Documentation

Showing up to 5 results
|